[[{"header":{"parameterUnit":"m.s-1","parameterCategory":1,"la1":30.2991,"la2":30.254,"lo1":-89.0895,"lo2":-89.0444,"dy":0.0017,"dx":0.0017,"nx":28,"ny":28,"refTime":"2025-12-20T03:00:00:Z","depth":0,"parameterNumber":2,"parameterNumberName":"U-component_of_WINDS"},"data":[0,0,0,0,0,0,0,0,0,0,0,0,0,0,0,0,0,0,0,0,0,0,0,0,0,0,0,0,0,0,0,0,0,0,0,0,0,0,0,0,0,0,0,0,0,0,0,0,0,0,0,0,0,0,0,0,0,0,-2.3651,-2.3652,0,-2.3719,-2.3719,-2.372,-2.369,-2.3688,-2.3687,-2.3685,-2.3756,-2.376,-2.3763,0,0,0,0,0,0,0,0,0,0,0,0,0,-2.35,-2.3502,-2.3651,-2.3652,-2.3653,-2.3718,-2.3719,-2.372,-2.369,-2.3688,-2.3686,-2.3684,-2.3755,-2.3759,-2.3763,0,0,0,0,0,0,0,0,0,0,0,0,0,-2.3566,-2.3503,-2.3651,-2.3646,-2.3646,-2.3718,-2.3719,-2.3721,-2.3691,-2.3688,-2.3686,-2.3683,-2.3754,-2.3759,-2.3764,-2.3846,0,0,-2.378,-2.3782,0,0,0,0,0,0,0,0,-2.3562,-2.3572,-2.3646,-2.3646,-2.3647,-2.3693,-2.3692,-2.3763,-2.3691,-2.3674,-2.3685,-2.3682,-2.3737,-2.3744,-2.3762,-2.3849,-2.3852,-2.378,-2.3783,-2.3785,-2.3787,0,0,0,0,0,0,0,-2.3558,-2.3569,-2.3678,-2.3647,-2.3647,-2.3641,-2.3648,-2.3705,-2.3719,-2.3675,-2.3673,-2.3681,-2.3737,-2.3757,-2.3763,-2.3853,-2.378,-2.3785,-2.3788,-2.379,-2.4014,-2.4016,0,0,0,0,0,0,-2.3553,-2.3565,-2.3676,-2.368,-2.3597,-2.3646,-2.3653,-2.3681,-2.3718,-2.3721,-2.3683,-2.368,-2.3749,-2.3757,-2.3766,-2.3866,-2.3785,-2.379,-2.3793,-2.4011,-2.4014,-2.4017,0,0,0,0,0,0,-2.355,-2.3563,-2.3673,-2.3622,-2.3635,-2.3651,-2.3682,-2.3684,-2.3703,-2.3724,-2.3727,-2.3701,-2.3748,-2.3759,-2.3827,-2.3868,-2.3793,-2.3797,-2.4007,-2.4012,-2.4016,-2.4066,0,0,0,0,0,0,-2.3545,-2.3562,-2.3592,-2.3623,-2.3638,-2.3732,-2.3685,-2.3687,-2.3712,-2.3708,-2.3742,-2.3745,-2.3747,-2.3819,-2.3832,-2.3874,-2.3801,-2.4004,-2.4009,-2.4014,-2.406,-2.4071,-2.408,0,0,0,0,0,-2.354,-2.3604,-2.3594,-2.3608,-2.3677,-2.3734,-2.3743,-2.3743,-2.3715,-2.3747,-2.3761,-2.3744,-2.3861,-2.3826,-2.384,-2.3884,-2.4001,-2.4008,-2.4014,-2.4056,-2.4069,-2.408,0,0,0,0,0,0,-2.3578,-2.3608,-2.3597,-2.3672,-2.3701,-2.3729,-2.3768,-2.3757,-2.3794,-2.3789,-2.3788,-2.3796,-2.3867,-2.3882,-2.3843,-2.3967,-2.3927,-2.3937,-2.3954,-2.3967,-2.3976,-2.3972,-2.3806,0,0,0,0,0,-2.3595,-2.3639,-2.3662,-2.3727,-2.3741,-2.3753,-2.3778,-2.3775,-2.3805,-2.3817,-2.3836,-2.3867,-2.391,-2.3939,-2.3981,-2.4062,-2.407,-2.41,-2.411,-2.4118,-2.4126,-2.4173,-2.4187,-2.4038,-2.4038,-2.4038,0,0,-2.3631,-2.3653,-2.368,-2.3735,-2.3757,-2.3803,-2.3763,-2.3813,-2.3848,-2.3825,-2.3891,-2.3906,-2.394,-2.4016,-2.405,-2.4031,-2.4169,-2.4126,-2.4132,-2.4136,-2.4181,-2.4195,-2.4207,-2.4043,-2.4042,-2.4041,0,0,-2.372,-2.374,-2.3797,-2.382,-2.3853,-2.3861,-2.3874,-2.3904,-2.3914,-2.3979,-2.3964,-2.4006,-2.4081,-2.4106,-2.4129,-2.423,-2.4216,-2.4243,-2.4295,-2.4341,-2.4353,-2.4363,-2.4401,-2.4414,-2.4252,-2.4252,-2.4252,0,-2.3761,-2.3829,-2.3827,-2.3879,-2.3905,-2.3886,-2.3944,-2.3967,-2.4013,-2.4031,-2.4009,-2.4104,-2.4125,-2.4208,-2.4232,-2.4251,-2.4268,-2.424,-2.4351,-2.4361,-2.4371,-2.4407,-2.4421,-2.4255,-2.4255,-2.4254,-2.4254,0,-2.3878,-2.3926,-2.3967,-2.4012,-2.4042,-2.4097,-2.4105,-2.4136,-2.4131,-2.4141,-2.421,-2.4235,-2.4282,-2.4301,-2.4298,-2.4384,-2.4372,-2.435,-2.431,-2.4388,-2.4422,-2.4436,-2.4259,-2.4258,-2.4257,-2.4257,0,0,-2.3992,-2.4036,-2.4052,-2.4073,-2.4109,-2.4147,-2.4201,-2.4247,-2.4274,-2.4307,-2.4354,-2.4419,-2.44,-2.4426,-2.4425,-2.4465,-2.4545,-2.4439,-2.4439,-2.4459,-2.4645,-2.4661,-2.4677,-2.4536,-2.4539,-2.4541,-2.4642,0,-2.4085,-2.418,-2.4181,-2.4269,-2.4315,-2.4298,-2.4347,-2.4375,-2.4387,-2.4427,-2.444,-2.4487,-2.4457,-2.4473,-2.4512,-2.4527,-2.4583,-2.452,-2.4582,-2.4584,-2.4575,-2.4695,-2.4712,-2.4806,-2.4655,-2.4658,-2.4659,0,-2.4206,-2.4242,-2.4335,-2.4367,-2.4386,-2.4429,-2.4472,-2.4511,-2.4544,-2.4549,-2.4579,-2.4573,-2.4631,-2.4589,-2.4669,-2.4626,-2.4652,-2.4664,-2.4667,-2.4674,-2.4627,-2.4706,-2.4836,-2.4851,-2.468,-2.4678,-2.4677,0,-2.4282,-2.4354,-2.442,-2.4438,-2.4476,-2.4507,-2.4525,-2.4555,-2.4583,-2.4621,-2.464,-2.4684,-2.4709,-2.4744,-2.4751,-2.4719,-2.4832,-2.479,-2.484,-2.484,-2.4865,-2.4863,-2.5003,-2.488,-2.4879,-2.4879,-2.4879,0,-2.4386,-2.4443,-2.4454,-2.4495,-2.456,-2.4561,-2.4625,-2.4641,-2.4668,-2.4712,-2.4701,-2.4743,-2.4749,-2.4793,-2.4798,-2.4865,-2.4876,-2.4883,-2.4884,-2.4885,-2.4884,-2.4902,-2.4896,-2.4883,-2.4882,-2.4881,-2.4881,0,-2.4481,-2.4491,-2.4561,-2.4592,-2.4601,-2.4648,-2.4675,-2.4714,-2.4725,-2.4781,-2.4795,-2.4812,-2.4863,-2.4873,-2.4934,-2.4937,-2.5018,-2.5012,-2.5007,-2.5007,-2.5056,-2.5052,-2.5213,-2.5235,-2.5096,-2.5098,-2.5099,0,-2.4547,-2.4592,-2.4627,-2.4656,-2.4675,-2.4721,-2.475,-2.4754,-2.4784,-2.4826,-2.4861,-2.4911,-2.4951,-2.5035,-2.5053,-2.51,-2.5096,-2.5149,-2.5103,-2.5103,-2.5099,-2.5096,-2.5102,-2.5158,-2.516,-2.5161,-2.5162,0,-2.4664,-2.4667,-2.4709,-2.4753,-2.4788,-2.4823,-2.4856,-2.488,-2.4888,-2.4924,-2.4976,-2.5007,-2.507,-2.512,-2.5168,-2.5187,-2.5177,-2.5176,-2.5191,-2.5192,-2.5188,-2.5193,-2.5032,-2.5173,-2.5172,-2.5171,-2.517,-2.517,-2.4748,-2.4788,-2.4819,-2.4867,-2.4892,-2.4924,-2.4963,-2.4979,-2.5022,-2.5073,-2.5073,-2.513,-2.5164,-2.5227,-2.5249,-2.5296,-2.5279,-2.5299,-2.5305,-2.531,-2.5315,-2.518,-2.5304,-2.5304,-2.5304,-2.5303,-2.5303,0,-2.4866,-2.4886,-2.4929,-2.4976,-2.5014,-2.5,-2.5037,-2.507,-2.5121,-2.5153,-2.5193,-2.5254,-2.5304,-2.5327,-2.5376,-2.5409,-2.5406,-2.5422,-2.542,-2.5425,-2.5326,-2.531,-2.5424,-2.5424,-2.5424,-2.5424,-2.5424,-2.5424,-2.4931,-2.4998,-2.5005,-2.5084,-2.5104,-2.516,-2.5182,-2.5212,-2.5238,-2.5307,-2.5348,-2.5362,-2.5392,-2.5444,-2.5489,-2.5495,-2.5514,-2.5533,-2.5537,-2.5444,-2.5432,-2.542,-2.5405,-2.5537,-2.5537,-2.5632,-2.5633,-2.5634]},{"header":{"parameterUnit":"m.s-1","parameterCategory":1,"la1":30.2991,"la2":30.254,"lo1":-89.0895,"lo2":-89.0444,"dy":0.0017,"dx":0.0017,"nx":28,"ny":28,"refTime":"2025-12-20T03:00:00:Z","depth":0,"parameterNumber":3,"parameterNumberName":"V-component_of_WINDS"},"data":[0,0,0,0,0,0,0,0,0,0,0,0,0,0,0,0,0,0,0,0,0,0,0,0,0,0,0,0,0,0,0,0,0,0,0,0,0,0,0,0,0,0,0,0,0,0,0,0,0,0,0,0,0,0,0,0,0,0,0.338,0.338,0,0.3364,0.3363,0.3363,0.3379,0.338,0.3381,0.3381,0.3362,0.336,0.3359,0,0,0,0,0,0,0,0,0,0,0,0,0,0.3424,0.3423,0.338,0.338,0.338,0.3364,0.3363,0.3363,0.3379,0.338,0.3381,0.3382,0.3362,0.3361,0.3359,0,0,0,0,0,0,0,0,0,0,0,0,0,0.3406,0.3422,0.338,0.3386,0.3386,0.3364,0.3363,0.3363,0.3379,0.338,0.3381,0.3382,0.3362,0.3361,0.3359,0.3329,0,0,0.3354,0.3353,0,0,0,0,0,0,0,0,0.3407,0.3404,0.3385,0.3385,0.3386,0.3375,0.3372,0.3352,0.3379,0.3382,0.3381,0.3382,0.3365,0.3363,0.3358,0.3328,0.3327,0.3354,0.3353,0.3352,0.3351,0,0,0,0,0,0,0,0.3408,0.3405,0.3373,0.3385,0.3385,0.3389,0.3387,0.3368,0.3368,0.3382,0.3383,0.3381,0.3365,0.3359,0.3357,0.3327,0.3354,0.3352,0.3351,0.335,0.3273,0.3272,0,0,0,0,0,0,0.3409,0.3406,0.3374,0.3373,0.3399,0.3387,0.3385,0.3377,0.3368,0.3368,0.338,0.3382,0.3362,0.3359,0.3357,0.3322,0.3352,0.335,0.3349,0.3274,0.3273,0.3272,0,0,0,0,0,0,0.341,0.3406,0.3375,0.339,0.3386,0.3385,0.3376,0.3376,0.3371,0.3367,0.3367,0.3374,0.3362,0.3359,0.3336,0.3321,0.335,0.3348,0.3275,0.3274,0.3272,0.3251,0,0,0,0,0,0,0.3411,0.3406,0.3395,0.3389,0.3385,0.3355,0.3375,0.3375,0.3368,0.337,0.3361,0.3361,0.3363,0.3339,0.3335,0.332,0.3347,0.3277,0.3275,0.3273,0.3253,0.3249,0.3246,0,0,0,0,0,0.3412,0.3389,0.3394,0.339,0.3371,0.3354,0.3352,0.3355,0.3367,0.3355,0.3353,0.3361,0.3324,0.3336,0.3332,0.3316,0.3278,0.3275,0.3273,0.3255,0.325,0.3246,0,0,0,0,0,0,0.3391,0.3388,0.3394,0.3368,0.3361,0.3357,0.3343,0.335,0.3339,0.3341,0.3345,0.3343,0.3319,0.3315,0.3329,0.3287,0.3302,0.3299,0.329,0.3286,0.3282,0.3283,0.3345,0,0,0,0,0,0.3384,0.3371,0.3368,0.3346,0.3342,0.3343,0.3335,0.3339,0.3332,0.3329,0.3325,0.3317,0.3303,0.3294,0.3282,0.3253,0.3252,0.324,0.3236,0.3233,0.323,0.3215,0.321,0.3264,0.3264,0.3264,0,0,0.3368,0.3365,0.3356,0.3341,0.3337,0.3323,0.334,0.3324,0.3314,0.3326,0.3305,0.3302,0.3293,0.3267,0.3256,0.3263,0.3215,0.323,0.3228,0.3226,0.3212,0.3207,0.3203,0.3262,0.3263,0.3263,0,0,0.3332,0.3328,0.3309,0.3304,0.3297,0.3298,0.3294,0.3288,0.3287,0.3266,0.3275,0.3263,0.3239,0.3233,0.3227,0.319,0.3197,0.3185,0.3165,0.3151,0.3147,0.3143,0.313,0.3126,0.3182,0.3182,0.3182,0,0.3312,0.3292,0.3298,0.3282,0.3276,0.3288,0.3268,0.3263,0.3252,0.3247,0.3256,0.3228,0.3222,0.3196,0.3187,0.3182,0.3177,0.3186,0.3147,0.3144,0.314,0.3128,0.3123,0.3181,0.3181,0.3181,0.3181,0,0.3269,0.3255,0.3241,0.3232,0.3223,0.3206,0.3209,0.32,0.3204,0.3204,0.3183,0.3177,0.3164,0.3158,0.3162,0.3133,0.3138,0.3147,0.3162,0.3134,0.3122,0.3118,0.3179,0.318,0.318,0.318,0,0,0.3219,0.3214,0.3208,0.3205,0.3198,0.3187,0.317,0.3159,0.3151,0.3143,0.3129,0.311,0.3119,0.3112,0.3115,0.3102,0.3074,0.3113,0.3113,0.3106,0.3042,0.3036,0.303,0.3079,0.3078,0.3078,0.3043,0,0.3183,0.3155,0.316,0.3132,0.312,0.3131,0.3117,0.3111,0.3111,0.3099,0.3099,0.3085,0.3098,0.3094,0.3082,0.308,0.3062,0.3083,0.3066,0.3065,0.3068,0.3024,0.3017,0.2984,0.3039,0.3038,0.3037,0,0.3137,0.3129,0.3101,0.3098,0.3092,0.3079,0.307,0.3059,0.3053,0.3054,0.3047,0.3052,0.3035,0.3052,0.3028,0.3042,0.3036,0.3034,0.3033,0.3031,0.3049,0.3022,0.2974,0.2969,0.303,0.3031,0.3031,0,0.3104,0.3086,0.3067,0.3063,0.3059,0.3049,0.3047,0.3042,0.3035,0.3026,0.3022,0.3011,0.3005,0.2996,0.2999,0.301,0.2975,0.2991,0.2975,0.2975,0.2966,0.2967,0.2917,0.2962,0.2962,0.2962,0.2962,0,0.3063,0.3045,0.3052,0.304,0.302,0.3027,0.3007,0.3006,0.3001,0.2989,0.2998,0.2987,0.2991,0.2979,0.2981,0.2962,0.2959,0.2959,0.2959,0.2958,0.2958,0.2953,0.2956,0.2961,0.2961,0.2961,0.2962,0,0.3022,0.3026,0.3006,0.3004,0.3003,0.2989,0.2987,0.2976,0.2977,0.2962,0.2958,0.296,0.2947,0.2949,0.2934,0.2935,0.2911,0.2914,0.2913,0.2914,0.2898,0.29,0.2844,0.2837,0.2886,0.2885,0.2885,0,0.2997,0.2983,0.2981,0.2974,0.2971,0.296,0.2953,0.2959,0.2952,0.2945,0.2934,0.2922,0.2913,0.2892,0.2891,0.288,0.2883,0.2864,0.2881,0.2881,0.2883,0.2884,0.2883,0.2861,0.286,0.286,0.2859,0,0.295,0.2953,0.2944,0.2935,0.2928,0.2921,0.2915,0.2909,0.2914,0.2905,0.2893,0.2886,0.2872,0.286,0.285,0.2847,0.2854,0.2854,0.285,0.2848,0.2849,0.2849,0.2904,0.2855,0.2856,0.2856,0.2856,0.2856,0.2916,0.2906,0.2902,0.2892,0.2889,0.2883,0.2873,0.2873,0.2863,0.2853,0.2857,0.2843,0.2838,0.2825,0.2821,0.281,0.2817,0.281,0.2809,0.2807,0.2805,0.2851,0.2808,0.2808,0.2808,0.2808,0.2808,0,0.2871,0.287,0.286,0.2853,0.2845,0.2853,0.2848,0.284,0.2828,0.2823,0.2814,0.28,0.2789,0.2788,0.2777,0.2769,0.2772,0.2766,0.2766,0.2766,0.2799,0.2805,0.2763,0.2763,0.2763,0.2763,0.2763,0.2763,0.2847,0.2829,0.2832,0.2812,0.2811,0.2798,0.2794,0.279,0.2786,0.277,0.2762,0.2761,0.2758,0.2747,0.2737,0.2737,0.2733,0.2726,0.2727,0.2759,0.2763,0.2767,0.2772,0.2725,0.2725,0.2694,0.2694,0.2693]}]]